EUTELSAT 16A

Last updated on Mon Oct 14 2024 00:02:39 GMT+0000 (Coordinated Universal Time)

1 37836U 11057A 24287.35327233 .00000103 00000+0 00000+0 0 9994 2 37836 0.0711 13.9929 0005370 193.1000 318.5004 1.00273004 1199
UTC large
Height (km)
Speed (km/s)
/
Latitude / Longitude
Inclination (degrees)
Orbital Period (minutes)
Azimuth
Elevation
Range (km)
Doppler Factor

Next 0 passes for location: London (51.5072 / 0.1276)

Sorry there are no passes over London.